Weather in Macau

China     22°11′35″N   113°32′56″E
temp.,
°C
wind,
m/s
gust,
m/s
humid.,
%
clouds,
%
prec.,
mm/h
press.,
hPa
HPBL,
m
26 february, fri
fri2623:00+21se359088 0.1 1010235
02:00+20sse249276 0.1 1009215
05:00+21ene119371 0.1 1008104
08:00+21e128985 0.3 101086
11:00+23ese237796 0.3 1011284
14:00+23se337592 0.5 1010370
17:00+23sse2377100 0.8 1009272
20:00+22nnw4674100 3.6 1011324
27 february, sat
sat2723:00+20nnw467398 1.6 1014387
02:00+20n477899 1.9 1013455
05:00+19nne577692 0.0 1013491
08:00+19nne467490 0.1 1015525
11:00+18nne4571100 0.3 1016425
14:00+19nne346899 0.4 1015577
17:00+20ne3468100 0.0 1014489
20:00+20ene2370100 0.0 1016532
28 february, sun
sun2823:00+20e4577100 0.0 1017527
02:00+19ese688481 0.0 1017549
05:00+19e798497 0.1 1016625
08:00+19e798098 0.1 1018619
11:00+20ese687065 0.0 1019791
14:00+21ese786749 0.0 1016691
17:00+21ese567211 0.0 1014473
20:00+20ese57806 0.0 1016404
1 march, mon
mon123:00+20ese468460 0.0 1017380
02:00+19ese468880 0.0 1016431
05:00+20e578699 0.1 1016365
08:00+20e5785100 0.2 1018398
11:00+20e4680100 0.0 1019353
14:00+22ese336881 0.0 1016571
17:00+22se337147 0.0 1015374
20:00+21sse237642 0.0 1016206
2 march, tue
tue223:00+21sse228114 0.0 1017172
02:00+20sw11858 0.0 1016121
05:00+20wsw01861 0.0 101664
08:00+21n23802 0.0 1017199
11:00+24nne46630 0.0 1018638
14:00+26ne46530 0.0 1016764
17:00+26n345229 0.0 1015858
20:00+25nne245357 0.0 1016363